[[{"header":{"parameterUnit":"m.s-1","parameterCategory":1,"la1":30.2991,"la2":30.254,"lo1":-89.0895,"lo2":-89.0444,"dy":0.0017,"dx":0.0017,"nx":28,"ny":28,"refTime":"2025-02-04T09:00:00:Z","depth":0,"parameterNumber":2,"parameterNumberName":"U-component_of_WINDS"},"data":[0,0,0,0,0,0,0,0,0,0,0,0,0,0,0,0,0,0,0,0,0,0,0,0,0,0,0,0,0,0,0,0,0,0,0,0,0,0,0,0,0,0,0,0,0,0,0,0,0,0,0,0,0,0,0,0,0,0,0.2045,0.2046,0,0.2136,0.2137,0.2138,0.2169,0.2169,0.2168,0.2168,0.2263,0.2266,0.2269,0,0,0,0,0,0,0,0,0,0,0,0,0,0.1896,0.1899,0.2044,0.2046,0.2047,0.2136,0.2138,0.2139,0.2169,0.2169,0.2168,0.2168,0.2262,0.2266,0.2269,0,0,0,0,0,0,0,0,0,0,0,0,0,0.1971,0.1899,0.2044,0.2073,0.2076,0.2136,0.2138,0.2139,0.2169,0.2169,0.2168,0.2168,0.2261,0.2266,0.227,0.2308,0,0,0.2283,0.2285,0,0,0,0,0,0,0,0,0.1967,0.1977,0.2067,0.2071,0.2075,0.2141,0.212,0.2196,0.2169,0.2134,0.2168,0.2167,0.2223,0.2231,0.2249,0.2313,0.2317,0.2284,0.2286,0.2288,0.2289,0,0,0,0,0,0,0,0.1962,0.1973,0.2081,0.2069,0.2073,0.2081,0.2091,0.2135,0.2181,0.2137,0.2139,0.215,0.2225,0.2245,0.2252,0.2318,0.2283,0.2287,0.229,0.2292,0.2418,0.2418,0,0,0,0,0,0,0.1952,0.1969,0.2078,0.2084,0.2018,0.2084,0.2095,0.212,0.218,0.2189,0.215,0.2151,0.2238,0.2247,0.2255,0.2304,0.2288,0.2292,0.2295,0.2417,0.2418,0.2418,0,0,0,0,0,0,0.1948,0.1961,0.2074,0.2027,0.2042,0.2087,0.2115,0.2122,0.2142,0.219,0.2199,0.2162,0.2238,0.2249,0.2295,0.2307,0.2294,0.2298,0.2416,0.2417,0.2418,0.2401,0,0,0,0,0,0,0.1944,0.196,0.1975,0.2027,0.2044,0.2112,0.2116,0.2125,0.2149,0.2151,0.2204,0.2212,0.2238,0.2288,0.2299,0.2313,0.2301,0.2415,0.2416,0.2418,0.2401,0.2402,0.2403,0,0,0,0,0,0.1939,0.1967,0.1976,0.1989,0.2064,0.2113,0.2123,0.2152,0.215,0.2166,0.2197,0.221,0.2304,0.2292,0.2305,0.2321,0.2414,0.2416,0.2418,0.2401,0.2402,0.2403,0,0,0,0,0,0,0.1916,0.1974,0.1984,0.2031,0.2066,0.2118,0.2139,0.2152,0.219,0.219,0.2225,0.2237,0.2279,0.2305,0.2291,0.2361,0.236,0.2364,0.2343,0.2344,0.2345,0.2338,0.2305,0,0,0,0,0,0.1916,0.1951,0.2,0.2036,0.2054,0.2093,0.2115,0.2134,0.2173,0.2189,0.2223,0.226,0.2298,0.2323,0.236,0.2405,0.2416,0.2422,0.2422,0.2423,0.2426,0.2451,0.2454,0.2424,0.2424,0.2424,0,0,0.1918,0.1954,0.1974,0.2033,0.2063,0.2098,0.2105,0.2142,0.2169,0.2195,0.2239,0.2266,0.231,0.2355,0.2376,0.2377,0.2437,0.2425,0.2425,0.2428,0.2453,0.2455,0.2458,0.2425,0.2425,0.2425,0,0,0.1938,0.1969,0.2002,0.2031,0.2076,0.2102,0.211,0.2159,0.2177,0.2223,0.2243,0.2274,0.2339,0.2369,0.2393,0.2423,0.2437,0.2435,0.2439,0.2462,0.2465,0.2467,0.2477,0.248,0.2438,0.2438,0.2438,0,0.1934,0.1987,0.2017,0.2053,0.2078,0.2102,0.2135,0.2163,0.2218,0.2235,0.2235,0.2316,0.2347,0.2399,0.2406,0.2425,0.2435,0.2429,0.2462,0.2464,0.2467,0.2477,0.2481,0.2437,0.2437,0.2437,0.2437,0,0.198,0.2017,0.2038,0.2089,0.2117,0.2151,0.2186,0.2211,0.2227,0.2253,0.2298,0.2336,0.2382,0.2396,0.2413,0.245,0.2449,0.2455,0.2455,0.2469,0.2479,0.2483,0.2436,0.2436,0.2437,0.2437,0,0,0.199,0.2056,0.2064,0.2087,0.2138,0.2167,0.2202,0.2246,0.2266,0.2303,0.2333,0.2386,0.2392,0.2419,0.2439,0.246,0.248,0.2463,0.2465,0.2465,0.2523,0.2518,0.2522,0.249,0.249,0.2491,0.2519,0,0.2016,0.208,0.2107,0.2158,0.2192,0.2215,0.2245,0.228,0.2304,0.2337,0.2364,0.2401,0.2406,0.2422,0.2443,0.2473,0.2493,0.2472,0.2518,0.2519,0.2506,0.2528,0.2523,0.2548,0.2524,0.2524,0.2525,0,0.2056,0.2092,0.2146,0.2192,0.2207,0.2234,0.2276,0.2307,0.2346,0.2362,0.2392,0.2411,0.2448,0.2445,0.2497,0.2482,0.2503,0.252,0.2522,0.2527,0.2523,0.2534,0.2557,0.2561,0.2532,0.2531,0.2531,0,0.2057,0.2119,0.216,0.2179,0.2234,0.2252,0.2275,0.2314,0.2338,0.2375,0.2391,0.2431,0.2453,0.2484,0.2514,0.2509,0.2563,0.2562,0.2577,0.2577,0.2588,0.2587,0.2615,0.2601,0.2601,0.2601,0.2601,0,0.2084,0.2116,0.2161,0.2185,0.2222,0.2253,0.2288,0.2313,0.2347,0.2377,0.24,0.2427,0.2464,0.2497,0.252,0.2559,0.2569,0.2583,0.2589,0.2582,0.258,0.2596,0.2595,0.2602,0.2602,0.2602,0.2601,0,0.2091,0.2123,0.2168,0.2215,0.2228,0.2253,0.2294,0.2318,0.2343,0.2381,0.2392,0.2431,0.247,0.2503,0.2554,0.257,0.2611,0.2617,0.2597,0.26,0.2613,0.2612,0.2652,0.2659,0.2641,0.2641,0.2641,0,0.2106,0.2132,0.2181,0.2203,0.2226,0.226,0.2285,0.2316,0.234,0.2386,0.2405,0.2446,0.248,0.2541,0.2575,0.2614,0.2622,0.2634,0.2628,0.2619,0.2622,0.262,0.2623,0.2634,0.2634,0.2634,0.2634,0,0.213,0.2144,0.2178,0.2217,0.2246,0.2278,0.2311,0.2328,0.2365,0.2391,0.2431,0.2457,0.2509,0.2549,0.2592,0.2616,0.2631,0.2635,0.2641,0.2633,0.262,0.2627,0.2598,0.2635,0.2634,0.2634,0.2634,0.2634,0.2142,0.2165,0.2203,0.224,0.2268,0.2298,0.2324,0.2351,0.2385,0.243,0.2446,0.2486,0.2524,0.2583,0.2607,0.264,0.2642,0.265,0.2652,0.2653,0.2652,0.2615,0.2648,0.2648,0.2648,0.2648,0.2648,0,0.2166,0.2191,0.2225,0.227,0.2299,0.231,0.2347,0.2371,0.2406,0.244,0.2473,0.2518,0.2557,0.2592,0.2633,0.2652,0.2659,0.2661,0.266,0.2665,0.2648,0.2639,0.2654,0.2654,0.2654,0.2654,0.2654,0.2654,0.2182,0.2221,0.2239,0.2293,0.2318,0.2358,0.2378,0.2406,0.2433,0.2482,0.2514,0.2537,0.2572,0.2614,0.265,0.2659,0.2673,0.2673,0.2684,0.2668,0.2667,0.2666,0.2657,0.2676,0.2676,0.2699,0.2699,0.2699]},{"header":{"parameterUnit":"m.s-1","parameterCategory":1,"la1":30.2991,"la2":30.254,"lo1":-89.0895,"lo2":-89.0444,"dy":0.0017,"dx":0.0017,"nx":28,"ny":28,"refTime":"2025-02-04T09:00:00:Z","depth":0,"parameterNumber":3,"parameterNumberName":"V-component_of_WINDS"},"data":[0,0,0,0,0,0,0,0,0,0,0,0,0,0,0,0,0,0,0,0,0,0,0,0,0,0,0,0,0,0,0,0,0,0,0,0,0,0,0,0,0,0,0,0,0,0,0,0,0,0,0,0,0,0,0,0,0,0,1.1548,1.1548,0,1.1505,1.1505,1.1504,1.1498,1.1499,1.1499,1.15,1.1451,1.145,1.1448,0,0,0,0,0,0,0,0,0,0,0,0,0,1.1622,1.1621,1.1549,1.1548,1.1547,1.1505,1.1505,1.1504,1.1498,1.1499,1.1499,1.15,1.1452,1.145,1.1448,0,0,0,0,0,0,0,0,0,0,0,0,0,1.1586,1.162,1.1549,1.154,1.1538,1.1505,1.1505,1.1504,1.1498,1.1499,1.1499,1.15,1.1453,1.145,1.1448,1.142,0,0,1.144,1.1439,0,0,0,0,0,0,0,0,1.1588,1.1583,1.1541,1.154,1.1539,1.1508,1.1513,1.1475,1.1498,1.1513,1.15,1.15,1.1469,1.1466,1.1456,1.1417,1.1415,1.144,1.1438,1.1437,1.1436,0,0,0,0,0,0,0,1.159,1.1585,1.1531,1.1541,1.1539,1.1536,1.1532,1.1506,1.1488,1.1512,1.1512,1.1507,1.1469,1.1458,1.1455,1.1415,1.144,1.1438,1.1436,1.1435,1.135,1.1349,0,0,0,0,0,0,1.1595,1.1587,1.1533,1.153,1.1565,1.1535,1.1529,1.1517,1.1489,1.1485,1.1506,1.1507,1.1462,1.1458,1.1453,1.1418,1.1437,1.1435,1.1433,1.135,1.1349,1.1349,0,0,0,0,0,0,1.1597,1.159,1.1534,1.1558,1.1551,1.1533,1.1519,1.1516,1.1506,1.1484,1.1481,1.1499,1.1463,1.1457,1.1428,1.1416,1.1434,1.1431,1.1351,1.135,1.1349,1.1348,0,0,0,0,0,0,1.1599,1.1591,1.1581,1.1558,1.155,1.1511,1.1518,1.1515,1.1502,1.1502,1.1477,1.1473,1.1463,1.1432,1.1426,1.1413,1.1429,1.1352,1.1351,1.1349,1.1349,1.1347,1.1345,0,0,0,0,0,1.1601,1.1582,1.1581,1.1574,1.1537,1.1511,1.1506,1.1496,1.1501,1.149,1.1476,1.1474,1.1418,1.1429,1.1422,1.1408,1.1353,1.1351,1.1349,1.1349,1.1347,1.1345,0,0,0,0,0,0,1.1602,1.1578,1.1577,1.155,1.1532,1.151,1.1496,1.1493,1.1473,1.1474,1.1461,1.1455,1.1427,1.1415,1.1427,1.1379,1.1386,1.1383,1.1388,1.1386,1.1384,1.1387,1.1427,0,0,0,0,0,1.16,1.1581,1.1561,1.1538,1.153,1.1515,1.1503,1.1496,1.1477,1.147,1.1454,1.1434,1.1413,1.1398,1.1377,1.1347,1.1341,1.1334,1.1332,1.133,1.1328,1.131,1.1306,1.1343,1.1343,1.1343,0,0,1.1593,1.1578,1.1567,1.1538,1.1524,1.1504,1.1508,1.1487,1.1472,1.1466,1.1439,1.1426,1.1403,1.1374,1.136,1.1362,1.1316,1.1328,1.1327,1.1325,1.1308,1.1304,1.1301,1.1342,1.1342,1.1342,0,0,1.1572,1.1559,1.1539,1.1524,1.1504,1.1493,1.1488,1.1466,1.1458,1.143,1.1425,1.1406,1.1369,1.1353,1.134,1.1312,1.1308,1.1305,1.1295,1.1278,1.1275,1.1272,1.1261,1.1258,1.1302,1.1302,1.1302,0,1.1566,1.1538,1.1528,1.1507,1.1494,1.1489,1.1468,1.1454,1.1427,1.1417,1.1421,1.1374,1.1359,1.1325,1.1318,1.1308,1.1301,1.1308,1.1276,1.1273,1.1271,1.126,1.1257,1.1302,1.1302,1.1302,1.1302,0,1.1531,1.1511,1.1497,1.1473,1.1458,1.1437,1.1423,1.1409,1.1404,1.1393,1.1364,1.1345,1.1319,1.1311,1.1305,1.1276,1.1278,1.1279,1.1286,1.1267,1.1257,1.1253,1.1302,1.1302,1.1302,1.1302,0,0,1.151,1.148,1.1475,1.1463,1.1439,1.1423,1.1401,1.1378,1.1366,1.1346,1.1327,1.1296,1.1296,1.1281,1.1274,1.1258,1.1237,1.1261,1.126,1.1257,1.1202,1.1202,1.1197,1.1234,1.1233,1.1233,1.1204,0,1.1485,1.1448,1.1438,1.1406,1.1387,1.1381,1.1362,1.1344,1.1333,1.1314,1.1301,1.1279,1.1282,1.1273,1.1257,1.1243,1.1225,1.1244,1.1215,1.1214,1.1221,1.1192,1.1192,1.1166,1.12,1.12,1.1199,0,1.1452,1.1434,1.14,1.1378,1.1369,1.1353,1.133,1.1312,1.1291,1.1284,1.1268,1.1261,1.1236,1.1244,1.121,1.1223,1.121,1.1201,1.1199,1.1196,1.1205,1.1188,1.1157,1.1153,1.1193,1.1193,1.1194,0,1.1439,1.1406,1.1381,1.1371,1.1345,1.1333,1.1322,1.1302,1.1288,1.1268,1.1258,1.1235,1.1222,1.1203,1.1189,1.1197,1.1156,1.1163,1.1148,1.1148,1.114,1.114,1.1106,1.1131,1.1132,1.1132,1.1132,0,1.1413,1.1392,1.1375,1.136,1.1336,1.1324,1.13,1.1288,1.1271,1.1252,1.1245,1.1227,1.1211,1.119,1.1179,1.1152,1.1146,1.1138,1.1136,1.1139,1.114,1.113,1.1132,1.1131,1.1131,1.1131,1.1131,0,1.1395,1.1383,1.1355,1.1333,1.1327,1.131,1.1291,1.1275,1.1263,1.1239,1.1233,1.1214,1.119,1.1175,1.1143,1.1136,1.1105,1.1103,1.1113,1.1112,1.1098,1.1099,1.1056,1.1049,1.1079,1.1079,1.1079,0,1.1379,1.1363,1.134,1.1327,1.1316,1.1296,1.1282,1.1269,1.1255,1.123,1.1217,1.1192,1.1172,1.1132,1.1115,1.1091,1.1088,1.1074,1.1084,1.1088,1.1087,1.1088,1.1086,1.1073,1.1073,1.1072,1.1072,0,1.1352,1.1347,1.1328,1.1306,1.129,1.1273,1.1255,1.1245,1.1229,1.1213,1.1188,1.1172,1.1141,1.1116,1.109,1.1076,1.1071,1.1069,1.1064,1.1068,1.1074,1.107,1.1108,1.107,1.107,1.1071,1.1071,1.1071,1.1334,1.132,1.1301,1.128,1.1265,1.1249,1.1233,1.122,1.1199,1.1174,1.1167,1.1141,1.1119,1.1084,1.107,1.1048,1.105,1.1044,1.1042,1.104,1.104,1.1077,1.1044,1.1044,1.1044,1.1044,1.1044,0,1.1307,1.1295,1.1275,1.1251,1.1234,1.1232,1.1212,1.1198,1.1175,1.1157,1.1137,1.1108,1.1084,1.1064,1.1039,1.1025,1.1022,1.1019,1.102,1.1017,1.104,1.1046,1.1022,1.1022,1.1022,1.1022,1.1022,1.1022,1.1291,1.1266,1.1258,1.1226,1.1213,1.1189,1.1177,1.1161,1.1146,1.1115,1.1095,1.1083,1.1064,1.1037,1.1014,1.1008,1.0999,1.0996,1.0991,1.1013,1.1015,1.1017,1.1023,1.0995,1.0994,1.0969,1.0969,1.0969]}]]